Ana Sayfa
METAR-TAF:

METAR-TAF

Havaalanları :

Ardmore Downtown Executive Airport

Ardmore, Oklahoma, Amerika Birleşik Devletleri

Enlem: 34-08-49N, Boylam: 097-07-21W, yükseklik: 257 m

Güncel hava durumu gözlemi

Rapor saat 16:35 UTC de 36 dakika önce yapıldı.
Rüzgar doğu/güneydoğudan 7 kt, doğu ve güney arasında değişken
Sıcaklık 28°C
Nem 66%
Basınç 1012 hPa
Görüş mesafesi: 16.1 km
Açık gökyüzü

METAR: K1F0 181635Z AUTO 12007KT 100V170 10SM CLR 28/21 A2988 RMK AO2 T02820205

Saat: 12:11 (17:11 UTC)


TAF: eksik

4.000'den fazla havaalanı için hava durumu gözlemleri ve tahminleri (METAR ve TAF raporları).

Kullanılabilir istasyonlar harita üzerinde sarı ve kırmızı noktalarla gösterilir.

İstasyonun adını görmek için fareyi noktanın üzerinde gezdirin.

Sonrasında hava gözlem ve tahminlerini görmek için tıklayın.

Haritayı değiştirmek için: yaklaştırmak için siyah artı işaretli yeşil düğmeye ve uzaklaştırmak için de eksi işaretli düğmeye hızla tıklayın; bitişik haritalar için yeşil okları kullanın.


METAR-TAF: